Tracking 27402 objects as of 2-Jun-2023
HD Live streaming from Space Station
objects crossing your sky now

STARLINK-4766

Track STARLINK-4766 now!
10-day predictions
STARLINK-4766 is classified as:


NORAD ID: 53840
Int'l Code: 2022-114Y
Perigee: 546.1 km
Apogee: 547.6 km
Inclination: 53.2 °
Period: 95.4 minutes
Semi major axis: 6917 km
RCS: Unknown
Launch date: September 19, 2022
Source: United States (US)
Launch site: AIR FORCE EASTERN TEST RANGE (AFETR)
Your satellite tracking list
Your tracking list is empty




NASA's NSSDC Master Catalog

Two Line Element Set (TLE):
1 53840U 22114Y   23153.02413400 -.00000389  00000-0 -63839-5 0  9994
2 53840  53.2147 155.7210 0001071  79.6927 280.4186 15.08837311 39709
Source of the keplerian elements: AFSPC